{"data":{"norad_id":56498,"intl_designator":"2023-064BC","name":"STARLINK-5522","alt_names":[],"object_type":"PAYLOAD","status":"ACTIVE","operator":null,"country":"US","launch_date":"2023-05-10","launch_site_code":"AFWTR","launch_vehicle":null,"mission":null,"orbit_class":"UNKNOWN","rcs_meters":null,"size_class":null,"mass_kg":null,"dimensions":null,"purposes":["comms"],"wikipedia_slug":null,"has_3d_model":false,"image_url":null,"decayed_at":null,"tle_current":{"epoch":"2026-05-25T01:29:34.785888Z","epoch_age_seconds":66370,"freshness":"FRESH","line1":"1 56498U 23064BC  26145.06220817 -.00000027  00000+0  55670-5 0  9998","line2":"2 56498  69.9992 271.8377 0003024 272.0315  88.0498 14.98331453167677","mean_motion":14.98331453,"eccentricity":0.0003024,"inclination_deg":69.9992,"raan_deg":271.8377,"arg_perigee_deg":272.0315,"mean_anomaly_deg":88.0498,"bstar":5.567e-6,"rev_number":16767,"period_min":96.106905926375,"perigee_km":569.94966069395,"apogee_km":574.15313463686,"semimajor_km":6950.1883976654,"source":"CELESTRAK","updated_at":"2026-05-25T13:38:18.077017Z"}}}